This demonstration page uses our WeatherBlox Daily Observations layout. Learn more.

Left ArrowRight Arrow

Hourly Observations for May 9, 2017

Temp ( °F °C ) Dew Point ( °F °C ) Humidity (%) Winds ( mph kmh ) Pressure ( in mb ) Visibility ( mi km ) Precip ( " mm )
12:53 am 00:53 Cloudy 69 20.6 59 15 70 70 SE 22 35 29.72 1006 10 16 0.00 0.00
1:53 am 01:53 Cloudy 68 20 59 15 73 73 SE 20 31 29.71 1006 10 16 0.00 0.00
2:53 am 02:53 Cloudy 69 20.6 59 15 70 70 SE 20 31 29.68 1005 10 16 0.00 0.00
3:53 am 03:53 Cloudy 68 20 59 15 73 73 SE 20 31 29.67 1005 10 16 0.00 0.00
4:53 am 04:53 Cloudy 68 20 60 15.6 76 76 SE 12 19 29.68 1005 10 16 0.00 0.00
5:53 am 05:53 Mostly Cloudy 67 19.4 60 15.6 79 79 SE 15 24 29.69 1005 10 16 0.00 0.00
6:53 am 06:53 Partly Cloudy 66 18.9 60 15.6 81 81 SE 13 20 29.72 1006 10 16 0.00 0.00
7:53 am 07:53 Sunny 67 19.4 60 15.6 79 79 SE 14 22 29.74 1007 8 13 0.00 0.00
8:53 am 08:53 Sunny 70 21.1 60 15.6 71 71 SE 16 26 29.76 1008 10 16 0.00 0.00
9:53 am 09:53 Sunny 73 22.8 60 15.6 64 64 SE 15 24 29.77 1008 10 16 0.00 0.00
10:53 am 10:53 Mostly Cloudy 76 24.4 59 15 56 56 SE 16 26 29.77 1008 10 16 0.00 0.00
11:53 am 11:53 Partly Cloudy 79 26.1 58 14.4 49 49 SSE 13 20 29.76 1008 10 16 0.00 0.00
12:53 pm 12:53 Sunny 83 28.3 58 14.4 43 43 E 15 24 29.73 1007 10 16 0.00 0.03
1:53 pm 13:53 Mostly Sunny 85 29.4 56 13.3 37 37 ESE 14 22 29.70 1006 10 16 0.00 0.00
2:53 pm 14:53 Sunny 87 30.6 55 12.8 34 34 ESE 16 26 29.66 1004 10 16 0.00 0.00
3:53 pm 15:53 Mostly Cloudy with Haze 86 30 56 13.3 36 36 ESE 18 30 29.63 1003 4 6 0.00 0.00
4:10 pm 16:10 Hazy 88 31 55 13 33 33 E 20 31 29.53 1000 4 6 0.00 0.00
4:53 pm 16:53 Mostly Cloudy with Haze 88 31.1 52 11.1 29 29 SE 24 39 29.59 1002 6 10 0.00 0.00
5:53 pm 17:53 Sunny 88 31.1 53 11.7 30 30 SE 24 39 29.58 1002 10 16 0.00 0.00
6:53 pm 18:53 Mostly Sunny 84 28.9 54 12.2 36 36 ESE 26 43 29.57 1001 10 16 0.00 0.03
7:53 pm 19:53 Sunny 81 27.2 57 13.9 44 44 SE 29 46 29.58 1002 10 16 0.00 0.00
8:53 pm 20:53 Clear 78 25.6 59 15 52 52 SE 22 35 29.60 1003 10 16 0.00 0.00
9:53 pm 21:53 Clear 77 25 59 15 54 54 SE 29 46 29.62 1003 10 16 0.00 0.00
10:53 pm 22:53 Clear 76 24.4 61 16.1 60 60 SE 26 43 29.63 1003 10 16 0.00 0.00
11:53 pm 23:53 Mostly Clear 75 23.9 62 16.7 64 64 SE 23 37 29.63 1003 9 14 0.00 0.00

Powered by AerisWeather